Location: Oshawa
(43.9000°N, 78.8670°W)
Time: 07:56:21
(UTC-04:00)

Cosmos 1821 Rocket - Pass Details

Date: 25 April 2018
Orbit: 944 x 1006 km, 82.9° (Epoch: 19 May)

Event Time Altitude Azimuth Distance (km) Brightness Sun altitude
Exits shadow 21:06:10 12° 126° (SE) 2,625 5.6 -9.8°
Maximum altitude 21:10:16 22° 83° (E) 2,031 5.2 -10.4°
Drops below altitude 10° 21:14:50 10° 36° (NE) 2,743 6.3 -11.1°
Sets 21:17:55 0° 21° (NNE) 3,685 7.2 -11.6°
